[[{"header":{"parameterUnit":"m.s-1","parameterCategory":1,"la1":30.2991,"la2":30.254,"lo1":-89.0895,"lo2":-89.0444,"dy":0.0017,"dx":0.0017,"nx":28,"ny":28,"refTime":"2025-07-22T09:00:00:Z","depth":0,"parameterNumber":2,"parameterNumberName":"U-component_of_WINDS"},"data":[0,0,0,0,0,0,0,0,0,0,0,0,0,0,0,0,0,0,0,0,0,0,0,0,0,0,0,0,0,0,0,0,0,0,0,0,0,0,0,0,0,0,0,0,0,0,0,0,0,0,0,0,0,0,0,0,0,0,2.6611,2.6612,0,2.6713,2.6715,2.6716,2.6633,2.663,2.6626,2.6623,2.6737,2.6743,2.6749,0,0,0,0,0,0,0,0,0,0,0,0,0,2.6355,2.636,2.6611,2.6613,2.6614,2.6713,2.6715,2.6716,2.6634,2.663,2.6625,2.6621,2.6735,2.6742,2.675,0,0,0,0,0,0,0,0,0,0,0,0,0,2.6463,2.6361,2.6611,2.6585,2.6583,2.6713,2.6715,2.6716,2.6635,2.663,2.6624,2.6619,2.6732,2.6741,2.6751,2.6915,0,0,2.678,2.6784,0,0,0,0,0,0,0,0,2.6457,2.6472,2.6587,2.6587,2.6585,2.6655,2.6666,2.6783,2.6636,2.6616,2.6623,2.6617,2.6715,2.6725,2.6756,2.692,2.6925,2.6781,2.6786,2.679,2.6793,0,0,0,0,0,0,0,2.6449,2.6467,2.6652,2.6589,2.6588,2.6571,2.658,2.6688,2.6694,2.6617,2.6611,2.6624,2.6713,2.6747,2.6758,2.6927,2.678,2.6789,2.6795,2.6798,2.7232,2.7238,0,0,0,0,0,0,2.6443,2.6462,2.6649,2.6655,2.6506,2.658,2.659,2.6638,2.6692,2.6695,2.6628,2.662,2.6734,2.6747,2.6762,2.6958,2.679,2.6799,2.6805,2.7226,2.7233,2.724,0,0,0,0,0,0,2.6438,2.6461,2.6645,2.6557,2.6579,2.659,2.6644,2.6643,2.6677,2.6701,2.6702,2.6661,2.673,2.6749,2.6877,2.696,2.6803,2.6812,2.7219,2.7228,2.7236,2.735,0,0,0,0,0,0,2.6431,2.6459,2.6519,2.6559,2.6584,2.6755,2.6649,2.6649,2.6692,2.6682,2.6732,2.6736,2.6727,2.6863,2.6886,2.6971,2.6819,2.7212,2.7223,2.7234,2.7339,2.7362,2.7381,0,0,0,0,0,2.6422,2.6549,2.6523,2.6546,2.6659,2.676,2.6775,2.676,2.6699,2.6761,2.6777,2.6734,2.6948,2.6877,2.6902,2.6991,2.7207,2.722,2.7233,2.733,2.7358,2.7381,0,0,0,0,0,0,2.6522,2.6554,2.6525,2.6668,2.6712,2.6746,2.6823,2.679,2.6854,2.6842,2.6824,2.6837,2.6972,2.6994,2.6915,2.7153,2.7068,2.7087,2.7133,2.7159,2.718,2.7172,2.6827,0,0,0,0,0,2.656,2.6637,2.6662,2.6786,2.6809,2.6813,2.6857,2.6841,2.6887,2.6906,2.6931,2.698,2.7058,2.711,2.7184,2.7343,2.7353,2.7416,2.7437,2.7454,2.7471,2.7558,2.7586,2.7283,2.7283,2.7282,0,0,2.6641,2.6668,2.6718,2.6807,2.6839,2.6922,2.6829,2.6921,2.6983,2.6921,2.7043,2.7064,2.7117,2.7262,2.7327,2.7285,2.7557,2.7471,2.7485,2.7492,2.7574,2.7603,2.7628,2.7292,2.729,2.7289,0,0,2.683,2.6858,2.6964,2.6998,2.7047,2.7048,2.7074,2.7114,2.7124,2.7246,2.7201,2.7277,2.7412,2.7452,2.749,2.7695,2.7659,2.772,2.783,2.7915,2.7939,2.796,2.8034,2.8061,2.7737,2.7737,2.7737,0,2.6925,2.7045,2.7024,2.7118,2.716,2.7105,2.7214,2.7249,2.7321,2.7352,2.7304,2.7472,2.7504,2.7657,2.7707,2.774,2.7771,2.7714,2.7937,2.7958,2.7977,2.8047,2.8075,2.7744,2.7743,2.7743,2.7742,0,2.716,2.7244,2.7325,2.7392,2.7443,2.7544,2.7541,2.7596,2.7577,2.7585,2.7711,2.7747,2.7827,2.7863,2.7846,2.8015,2.7987,2.7938,2.7852,2.8013,2.8079,2.8106,2.7754,2.7752,2.775,2.7748,0,0,2.7414,2.7468,2.7498,2.7528,2.7579,2.7645,2.7746,2.7821,2.7868,2.7921,2.8006,2.8121,2.8076,2.812,2.8108,2.8182,2.8343,2.8124,2.8125,2.8164,2.8532,2.8568,2.8599,2.8319,2.8324,2.8328,2.8527,0,2.7605,2.7775,2.776,2.7924,2.8002,2.7953,2.804,2.8083,2.8094,2.8164,2.8177,2.8259,2.8194,2.8219,2.8291,2.8308,2.8417,2.8294,2.8401,2.8405,2.8388,2.8633,2.8672,2.8857,2.8553,2.8557,2.856,0,2.785,2.7907,2.8078,2.8117,2.8149,2.8228,2.8296,2.8364,2.8412,2.8415,2.8463,2.8439,2.8543,2.8455,2.86,2.8516,2.856,2.8575,2.8582,2.8591,2.8492,2.8649,2.8916,2.8944,2.8601,2.8598,2.8595,0,2.8018,2.8139,2.8256,2.8284,2.8333,2.8389,2.8413,2.8455,2.8502,2.8563,2.8593,2.8667,2.8708,2.8767,2.8764,2.87,2.8911,2.8822,2.8918,2.8918,2.8964,2.8961,2.9242,2.8993,2.8993,2.8992,2.8992,0,2.8232,2.8339,2.8332,2.8405,2.8523,2.8506,2.8625,2.8643,2.8682,2.8759,2.8722,2.8796,2.8787,2.8863,2.8862,2.8982,2.9001,2.9008,2.9006,2.9011,2.901,2.9038,2.9025,2.9,2.8998,2.8996,2.8995,0,2.844,2.8439,2.8564,2.86,2.8611,2.8697,2.8729,2.8799,2.8807,2.8905,2.8927,2.894,2.9027,2.903,2.9131,2.913,2.9277,2.9261,2.9259,2.9256,2.9351,2.9342,2.966,2.9701,2.9426,2.9428,2.9431,0,2.8576,2.8656,2.87,2.8747,2.8774,2.8851,2.8898,2.8886,2.8936,2.8998,2.9061,2.9144,2.9209,2.935,2.9371,2.9448,2.9434,2.954,2.9445,2.9447,2.9435,2.943,2.9439,2.9558,2.9561,2.9564,2.9566,0,2.8819,2.8814,2.8881,2.8949,2.9005,2.9059,2.9109,2.9151,2.9145,2.9204,2.9291,2.9341,2.9443,2.9526,2.9601,2.9628,2.9598,2.9595,2.9621,2.9627,2.9622,2.9626,2.9309,2.9588,2.9586,2.9584,2.9583,2.9582,2.8994,2.9063,2.9105,2.9181,2.9217,2.9264,2.9332,2.9347,2.9418,2.9497,2.9487,2.9584,2.9632,2.9729,2.9763,2.984,2.9804,2.9842,2.9852,2.9861,2.9871,2.961,2.9854,2.9854,2.9853,2.9853,2.9852,0,2.9235,2.9259,2.9329,2.9398,2.9459,2.9422,2.9476,2.953,2.9614,2.966,2.9725,2.9826,2.9906,2.9933,3.0012,3.0069,3.0057,3.009,3.0086,3.0093,2.9899,2.9868,3.0099,3.0099,3.0099,3.0099,3.0099,3.0099,2.9366,2.9481,2.9483,2.9616,2.964,2.9732,2.9766,2.9811,2.9847,2.996,3.0026,3.0042,3.0081,3.0163,3.0236,3.0242,3.0273,3.0312,3.0313,3.0131,3.0106,3.0083,3.0054,3.0319,3.032,3.05,3.0501,3.0503]},{"header":{"parameterUnit":"m.s-1","parameterCategory":1,"la1":30.2991,"la2":30.254,"lo1":-89.0895,"lo2":-89.0444,"dy":0.0017,"dx":0.0017,"nx":28,"ny":28,"refTime":"2025-07-22T09:00:00:Z","depth":0,"parameterNumber":3,"parameterNumberName":"V-component_of_WINDS"},"data":[0,0,0,0,0,0,0,0,0,0,0,0,0,0,0,0,0,0,0,0,0,0,0,0,0,0,0,0,0,0,0,0,0,0,0,0,0,0,0,0,0,0,0,0,0,0,0,0,0,0,0,0,0,0,0,0,0,0,1.8935,1.8937,0,1.9137,1.9139,1.9142,1.9133,1.913,1.9127,1.9125,1.9327,1.9335,1.9343,0,0,0,0,0,0,0,0,0,0,0,0,0,1.8535,1.8542,1.8935,1.8937,1.894,1.9137,1.9139,1.9142,1.9134,1.913,1.9127,1.9123,1.9325,1.9334,1.9344,0,0,0,0,0,0,0,0,0,0,0,0,0,1.872,1.8545,1.8934,1.8959,1.8964,1.9136,1.9139,1.9143,1.9134,1.913,1.9126,1.9122,1.9321,1.9333,1.9345,1.9504,0,0,1.9382,1.9387,0,0,0,0,0,0,0,0,1.8709,1.8735,1.8953,1.8958,1.8963,1.9106,1.9073,1.9264,1.9135,1.9069,1.9125,1.912,1.9257,1.9274,1.9321,1.9514,1.9522,1.9383,1.939,1.9395,1.9399,0,0,0,0,0,0,0,1.8697,1.8726,1.9015,1.8956,1.8962,1.8958,1.898,1.9109,1.9184,1.9075,1.9075,1.9099,1.9258,1.9309,1.9325,1.9525,1.9383,1.9393,1.9401,1.9405,1.9855,1.986,0,0,0,0,0,0,1.8679,1.8715,1.9008,1.9021,1.8823,1.8969,1.8993,1.9064,1.9183,1.9197,1.9102,1.9098,1.9291,1.9311,1.9333,1.9525,1.9395,1.9407,1.9413,1.985,1.9856,1.9861,0,0,0,0,0,0,1.8671,1.8705,1.9,1.8868,1.8905,1.8981,1.906,1.907,1.9121,1.9204,1.9216,1.9141,1.9288,1.9316,1.9461,1.9532,1.9412,1.9423,1.9845,1.9852,1.9859,1.9912,0,0,0,0,0,0,1.8659,1.8702,1.8766,1.887,1.8912,1.9128,1.9065,1.9077,1.9142,1.9138,1.9243,1.9256,1.9287,1.9443,1.9473,1.9546,1.9432,1.9839,1.9848,1.9856,1.9904,1.992,1.9934,0,0,0,0,0,1.8645,1.8772,1.8769,1.8804,1.8993,1.9132,1.9156,1.919,1.9148,1.9211,1.9263,1.9253,1.9519,1.9458,1.9492,1.957,1.9835,1.9845,1.9856,1.9898,1.9917,1.9933,0,0,0,0,0,0,1.8674,1.8787,1.8784,1.8949,1.9031,1.913,1.9211,1.921,1.9304,1.9296,1.9332,1.9356,1.9501,1.955,1.948,1.9728,1.9671,1.9689,1.9692,1.9711,1.9725,1.971,1.9442,0,0,0,0,0,1.87,1.8805,1.8897,1.9033,1.9075,1.9135,1.9197,1.9216,1.9302,1.9336,1.9399,1.9481,1.9583,1.9649,1.9748,1.9911,1.9932,1.998,1.9995,2.0007,2.0022,2.0108,2.013,1.9896,1.9896,1.9896,0,0,1.8754,1.8828,1.8892,1.9041,1.9107,1.9212,1.9165,1.9279,1.9357,1.9353,1.9494,1.9543,1.9636,1.9791,1.9862,1.9836,2.0091,2.002,2.0029,2.0038,2.0122,2.0144,2.0163,1.9903,1.9902,1.9901,0,0,1.8906,1.8974,1.9094,1.9161,1.9261,1.93,1.9329,1.9428,1.946,1.9603,1.9601,1.9693,1.9868,1.9934,1.9991,2.0164,2.0157,2.0195,2.0272,2.0356,2.0374,2.0391,2.0451,2.0472,2.0209,2.021,2.021,0,1.896,1.9122,1.9156,1.9271,1.9335,1.9336,1.9457,1.9519,1.9645,1.9688,1.9657,1.9875,1.9939,2.0107,2.0149,2.0195,2.0227,2.0184,2.0369,2.0386,2.0402,2.046,2.0483,2.0214,2.0213,2.0213,2.0212,0,1.9182,1.9294,1.9379,1.9502,1.9575,1.9692,1.9742,1.9811,1.9823,1.9864,2.0007,2.0082,2.0195,2.0236,2.0248,2.0406,2.0386,2.0362,2.0305,2.0428,2.0482,2.0505,2.0219,2.0218,2.0217,2.0216,0,0,1.9361,1.95,1.953,1.9585,1.9694,1.978,1.9895,2.0006,2.0064,2.015,2.0246,2.0393,2.037,2.0434,2.0453,2.0527,2.0657,2.0493,2.0496,2.052,2.0832,2.085,2.0875,2.0653,2.0657,2.0661,2.0824,0,1.9524,1.9732,1.9764,1.9945,2.0047,2.0047,2.0147,2.0223,2.0264,2.0354,2.0398,2.0502,2.0465,2.0503,2.0576,2.0626,2.072,2.0614,2.074,2.0744,2.0717,2.0904,2.0924,2.1074,2.0846,2.0849,2.0852,0,1.9743,1.9836,2.0027,2.012,2.0164,2.0254,2.0356,2.0443,2.0528,2.0552,2.0622,2.0631,2.0748,2.0685,2.0845,2.0772,2.0825,2.0856,2.0863,2.0876,2.0806,2.0921,2.1123,2.1146,2.0886,2.0884,2.0881,0,1.9852,2.0025,2.0161,2.0208,2.032,2.0382,2.0431,2.0512,2.0576,2.0664,2.0705,2.0806,2.0861,2.0937,2.0972,2.0924,2.1128,2.1069,2.115,2.1149,2.1193,2.119,2.1406,2.1228,2.1227,2.1227,2.1227,0,2.0031,2.0148,2.0212,2.0295,2.0425,2.0459,2.0586,2.0633,2.0704,2.0795,2.08,2.0885,2.0926,2.1016,2.1043,2.117,2.1194,2.1215,2.1221,2.1215,2.1212,2.1251,2.1241,2.1233,2.1232,2.1231,2.1229,0,2.0176,2.0224,2.0372,2.0465,2.0491,2.0582,2.0661,2.0741,2.078,2.0894,2.0923,2.0984,2.109,2.1132,2.1261,2.1279,2.1424,2.1422,2.1396,2.1398,2.1475,2.1467,2.1724,2.1758,2.1557,2.1559,2.1561,0,2.0287,2.0377,2.048,2.0542,2.0593,2.0693,2.0757,2.0793,2.086,2.0961,2.1028,2.1134,2.1221,2.1389,2.1443,2.1541,2.1541,2.1623,2.1555,2.1545,2.1541,2.1535,2.1543,2.1636,2.1638,2.164,2.1641,0,2.0479,2.0497,2.0591,2.0694,2.0771,2.0852,2.0932,2.0981,2.1028,2.1102,2.1211,2.1278,2.141,2.1514,2.1614,2.1661,2.1659,2.1662,2.1685,2.168,2.1661,2.1671,2.143,2.1656,2.1655,2.1654,2.1653,2.1652,2.061,2.0689,2.0773,2.0877,2.094,2.1013,2.1092,2.1141,2.1233,2.1344,2.1358,2.1474,2.1553,2.1687,2.1739,2.1828,2.1806,2.184,2.1849,2.1857,2.1862,2.1647,2.1846,2.1846,2.1845,2.1845,2.1845,0,2.08,2.0854,2.0949,2.106,2.1141,2.1132,2.1219,2.1286,2.1389,2.1463,2.1548,2.1671,2.1771,2.1832,2.1932,2.1991,2.1992,2.2016,2.2012,2.2022,2.1876,2.1845,2.2013,2.2013,2.2013,2.2013,2.2013,2.2013,2.0909,2.1042,2.107,2.1232,2.1285,2.14,2.1449,2.1516,2.1575,2.1713,2.1797,2.1836,2.1904,2.2008,2.2098,2.2113,2.2149,2.2175,2.2188,2.205,2.2033,2.2016,2.1988,2.2183,2.2183,2.2327,2.2328,2.2329]}]]